Regional Weather Roundup
Issued by NWS Newport/Morehead, NC

Current Version | Previous Version | Graphics & Text | Print | Product List | Glossary On
Versions: 1 2 3 4 5 6 7 8 9 10 11 12 13 14 15 16 17 18 19 20 21 22 23 24 25 26 27 28 29 30 31 32 33 34 35 36 37 38 39 40 41 42 43 44 45 46 47 48 49 50
000 ASUS42 KMHX 230013 RWRMHX WEATHER ROUNDUP FOR EASTERN NORTH CAROLINA NATIONAL WEATHER SERVICE NEWPORT/MOREHEAD CITY NC 800 PM EDT SUN OCT 22 2017 NOTE: "FAIR" INDICATES FEW OR NO CLOUDS BELOW 12,000 FEET WITH NO SIGNIFICANT WEATHER AND/OR OBSTRUCTIONS TO VISIBILITY NCZ015>017-031-032-045>047-102-103-230100- NORTH COAST CITY SKY/WX TMP DP RH WIND PRES REMARKS EDENTON CLOUDY 70 67 89 CALM 30.31R ELIZABETH CITY PTCLDY 66 66 100 E5 30.31R KITTY HAWK CLEAR 68 67 96 CALM 30.30S MANTEO CLEAR N/A N/A N/A E5 30.32R $$ NCZ045>047-081-094-103-104-230100- CENTRAL COAST CITY SKY/WX TMP DP RH WIND PRES REMARKS FRISCO CLEAR 70 68 93 NE6 30.30S $$ NCZ095-097-098-100-101-230100- SOUTHERN COAST CITY SKY/WX TMP DP RH WIND PRES REMARKS BEAUFORT CLOUDY 69 64 84 CALM 30.29R CEDAR ISLAND NOT AVBL JACKSONVILLE CLEAR 68 65 90 SE3 30.28R PINEY ISLAND N/A N/A N/A N/A E8 30.29R WILMINGTON CLEAR 69 66 90 E5 30.26S $$ NCZ011>013-027>030-043-044-078>080-089-090>093-098-230100- COASTAL PLAIN CITY SKY/WX TMP DP RH WIND PRES REMARKS AHOSKIE CLOUDY 67 60 78 CALM 30.30R CLINTON PTCLDY 71 64 80 CALM 30.28R ELIZABETHTOWN NOT AVBL GOLDSBORO MOCLDY 70 63 77 E6 30.27R HAZE GREENVILLE PTCLDY 72 61 68 S5 30.30R HAVELOCK CLEAR 67 65 93 E5 30.30R KENANSVILLE CLEAR 68 63 83 CALM 30.29R KINSTON CLOUDY 73 63 68 E5 30.30R NEW BERN CLEAR 70 64 81 E5 30.30R RICHLANDS CLEAR 66 62 87 CALM 30.29R ROCKY MOUNT CLOUDY 65 62 90 CALM 30.30R WASHINGTON CLEAR 67 60 78 CALM 30.29S WHITEVILLE CLEAR 71 64 78 E6 30.25S $$ AMZ130-135-150-152-154-156-158-170-250-252-270-ANZ085-086-088-633-658-670-230100- MARINE OBSERVATIONS STATION/POSITION TIME TEMP WIND PRES WAVE SWELL AIR SEA DIR/SP/G HT/PER HT/PER (UTC) (F) (DEG/KT/KT) (MB) (FT/S) (FT/S) CHESAPEAKE LIGHT NOT AVBL 64 E VA BEACH 2350 70 70 90/ 10/ 12 1027.0 3/ 9 2/ 9 DUCK 2348 70 70/ 11/ 12 1026.1 2 E DUCK 0000 70 N/A 2/ 8 OREGON INLET 2348 71 50/ 6/ 9 1026.3 13E OREGON INLT 2318 73 N/A 3/10 2/10 HATTERAS CG 2348 73 70/ 3/ 5 1026.0 DIAMOND BUOY 2350 76 81 110/ 8/ 10 1025.8 3/ 9 3/ 9 CAPE LOOKOUT 0000 75 80/ 12/ 13 1025.3 BEAUFORT LAB 2348 73 40/ 3/ 4 1025.8 30 SE NEW RVR IN 2308 77 110/ 12/ 16 1024.7 30 SE NEW RVR IN NOT AVBL 27 SE WRIGHTSVLE 2308 76 76 140/ 12/ 16 1024.5 5 SE WRIGHTSVLE 2308 75 74 120/ 8/ 12 1024.5 225 S CAPE HAT 2350 76 80 100/ 12/ 14 1024.6 4/ 9 3/ 9 41 SE CHARLESTON 2350 79 79 120/ 19/ 23 1021.6 6/ 8 3/ 8 $$

USA.gov is the U.S. government's official web portal to all federal, state and local government web resources and services.